Flag for Germany Weather past 2 weeks in Sankt Ingbert, Saarland, Germany

Now
64 °F

Passing clouds.


Feels Like: 64 °F
Forecast: 55 / 72 °F
Wind: 2 mph from Northwest

Location: Saarbruecken / Ensheim

Current Time: Jul 30, 2014 at 10:22:44 PM

Latest Report: Jul 30, 2014 at 10:00 PM


Visibility: 28 mi

Pressure: 29.96 "Hg

Humidity: 83%

Dew point: 59 °F

Location of Sankt IngbertLocation

Historic Weather in Sankt Ingbert — Graph

°F

Sankt Ingbert temperature yesterday

Maximum temperature yesterday: 72 °F (at 4:00 PM)
Minimum temperature yesterday: 60 °F (at 2:00 AM)
Average temperature yesterday: 64 °F

Past Weeks' High & Low Weather Summary

 TemperatureHumidityPressure
High90 °F (Jul 19, 3:00 PM)98% (Jul 21, 8:00 AM)30.20 "Hg (Jul 21, 8:00 AM)
Low55 °F (Jul 26, 6:00 AM)25% (Jul 18, 7:00 PM)29.75 "Hg (Jul 29, 4:00 PM)
Average69 °F70%29.94 "Hg
* Reported Jul 15 9:00 PM — Jul 30 9:00 PM, Sankt Ingbert, Weather by CustomWeather, © 2014

Note: Actual official high and low records may vary slightly from our data, if they occured in-between our weather recording intervals... More about our weather records

Advertising

Sankt Ingbert weather history for previous 24 hours

 ConditionsComfort  
Time TempWeatherWind HumidityBarometerVisibility
9:00 PM
Jul 30
67 °FOvercast.2 mph73%29.94 "Hg37 mi
8:00 PM69 °FOvercast.5 mph66%29.92 "Hg37 mi
7:00 PM70 °FOvercast.5 mph68%29.90 "Hg31 mi
6:00 PM74 °FPartly sunny.5 mph62%29.88 "Hg22 mi
5:00 PM71 °FOvercast.3 mph71%29.89 "Hg22 mi
4:00 PM70 °FOvercast.3 mph76%29.89 "Hg22 mi
3:00 PM70 °FOvercast.6 mph71%29.88 "Hg12 mi
2:00 PM69 °FOvercast.6 mph78%29.87 "Hg7 mi
1:00 PM68 °FLow clouds.5 mph88%29.87 "Hg6 mi
12:00 PM67 °FLow clouds.5 mph83%29.86 "Hg6 mi
11:00 AM68 °FDrizzle. Low clouds.3 mph88%29.84 "Hg6 mi
10:00 AM67 °FLow clouds.3 mph92%29.83 "Hg6 mi
9:00 AM65 °FLow clouds.3 mph97%29.82 "Hg4 mi
8:00 AM64 °FLight rain. Low clouds.3 mph98%29.81 "Hg3 mi
7:00 AM63 °FLow clouds.3 mph98%29.80 "Hg2 mi
6:00 AM63 °FRain. Low clouds.3 mph98%29.80 "Hg2 mi
5:00 AM63 °FLight rain. Low clouds.2 mph98%29.79 "Hg4 mi
4:00 AM62 °FLow clouds.2 mph98%29.79 "Hg5 mi
3:00 AM62 °FLight rain. Low clouds.2 mph98%29.79 "Hg5 mi
2:00 AM63 °FLight rain. Low clouds.2 mph98%29.79 "Hg6 mi
1:00 AM63 °FLight rain. Low clouds.1 mph97%29.80 "Hg6 mi
12:00 AM63 °FSprinkles. Low clouds.2 mph96%29.79 "Hg4 mi
11:00 PM
Jul 29
65 °FSprinkles. Low clouds.1 mph97%29.78 "Hg1 mi
10:00 PM64 °FSprinkles. Low clouds.2 mph97%29.79 "Hg2 mi
Weather by CustomWeather, © 2014

See weather overviewHow to use our weather pages